星链-35173(STARLINK-35173)

导读

STARLINK-35173是美国SpaceX星链项目的一颗低轨互联网卫星,于2025年9月25日从美国佛罗里达州空军东部试验场发射,目前处于在轨运行状态。该卫星运行在平均高度约482.4公里近地轨道,轨道倾角53.159°,轨道周期94.107分钟,是SpaceX构建全球低轨卫星互联网星座的组成部分,旨在为全球提供高速低延迟宽带互联网服务。

Basic Information
目录编号:
65744
目录名称:
STARLINK-35173
国际标识:
2025-216L
轨道中心:
EARTH
卫星名称:
星链-35173
卫星全名:
星链-35173(STARLINK-35173)
卫星状态:
在轨 (已飞行344 天)
发射日期:
2025-09-25 UTC
国别 :
美国 (US)
星等 :
--
Orbit Information
数据来源 国际轨道数据 AOE轨道数据
星历时间 2026-09-03T16:33:16+0800
23小时前
查看轨道信息
2026-09-01T23:00:00+0800
2天前
查看轨道信息
半长轴 6840.832km 6840.898km
偏心率 0.0001303 0.000125
轨道倾角 53.158° 53.155°
近地点辐角 92.331° 87.026°
升交点赤经 225.630° 233.725°
平近点角 267.784° 63.593°
近地点 461.803km 461.905km
远地点 463.587km 463.617km
周期 93.848分钟 93.849分钟
每日圈数 15.344029 15.343807
Detailed Information
固有亮度:
5
最大亮度:
2.5
卫星平台:
Starlink V1.0
覆盖范围:
全球
运营商:
太空探索技术公司
运营商所在国:
美国
制造商(研发单位):
太空探索技术公司
制造商所在国:
美国
使用方式:
暂无
Satellite Introduction
Starlink 计划是 SpaceX 推出的全球卫星互联网项目,通过发射低轨道卫星,为全球尤其是偏远地区提供高速、低延迟的互联网服务。自 2019 年起,Starlink 已部署数千颗卫星,旨在缩小全球数字鸿沟,推动互联网普及。该项目还为军事、航空等行业提供通信支持,带来广泛经济效益。
2D Orbit Map
3D Orbit Map
Orbit Altitude Analysis Chart
Orbit Inclination Analysis Chart
Orbit Comprehensive Analysis Chart
View Comprehensive Chart
Conjunction Data List
Event ID Objects TCA Miss Dist (km) Collision Risk Probability Collision Risk Index (CRI) Action
CDM_260904-082804-033706-574421
2026-09-04T
08:28:28+0000
1.182 km
极远距离
1.436179E-5 中风险 0.58
CDM_260903-193405-316706-574421
2026-09-03T
19:34:40+0000
1.356 km
极远距离
8.138435E-6 低风险 0.53
CDM_260905-123605-186906-574421
2026-09-05T
12:36:40+0000
1.425 km
极远距离
4.306978E-6 低风险 0.48
CDM_260904-143806-574406-936421
2026-09-04T
14:38:28+0000
1.087 km
极远距离
2.581411E-6 低风险 0.43
CDM_260903-122906-574406-995021
2026-09-03T
12:29:30+0000
2.144 km
极远距离
2.139219E-6 低风险 0.42
CDM_260904-170705-198106-574421
2026-09-04T
17:07:31+0000
2.928 km
极远距离
1.01603E-6 低风险 0.35
CDM_260903-020205-198306-574421
2026-09-03T
02:02:42+0000
2.962 km
极远距离
1.002636E-6 低风险 0.35
CDM_260904-152506-574406-936421
2026-09-04T
15:25:22+0000
1.765 km
极远距离
6.381958E-7 极低风险 0.31
CDM_260904-135106-574406-936421
2026-09-04T
13:51:34+0000
2.875 km
极远距离
2.860922E-7 极低风险 0.24